owner,sensor,date,latitude,longitude,vertical_datum,wind_speed,wind_to_direction,wind_speed_of_gust,qcFlag 
TCOON,ioos:station:TCOON:003:1,2004-09-01T00:00:00Z,26.8015,-97.4706,0.0,5.0,110.0,6.0,'11111222,11111222,11111222' 
TCOON,ioos:station:TCOON:003:1,2004-09-01T01:00:00Z,26.8015,-97.4706,0.0,4.0,120.0,5.0,'11111222,11111222,11111222' 
TCOON,ioos:station:TCOON:003:1,2004-09-01T02:00:00Z,26.8015,-97.4706,0.0,3.0,120.0,4.0,'11111222,11111222,11111222' 
TCOON,ioos:station:TCOON:003:1,2004-09-01T03:00:00Z,26.8015,-97.4706,0.0,2.0,120.0,99.0,'11111222,11111222,11144222' 
TCOON,ioos:station:TCOON:003:1,2004-09-01T04:00:00Z,26.8015,-97.4706,0.0,0.0,0.0,0.0,'11111222,11111222,11111222' 
TCOON,ioos:station:TCOON:003:1,2004-09-01T05:00:00Z,26.8015,-97.4706,0.0,0.0,0.0,0.0,'11111222,11111222,11111222' 
TCOON,ioos:station:TCOON:003:1,2004-09-01T06:00:00Z,26.8015,-97.4706,0.0,0.0,0.0,0.0,'11111222,11111222,11111222' 
TCOON,ioos:station:TCOON:003:1,2004-09-01T07:00:00Z,26.8015,-97.4706,0.0,0.0,0.0,0.0,'11111222,11111222,11111222' 
TCOON,ioos:station:TCOON:003:1,2004-09-01T08:00:00Z,26.8015,-97.4706,0.0,0.0,0.0,1.0,'11111222,11111222,11111222' 
TCOON,ioos:station:TCOON:003:1,2004-09-01T09:00:00Z,26.8015,-97.4706,0.0,0.0,0.0,0.0,'11111222,11111222,11111222' 
TCOON,ioos:station:TCOON:003:1,2004-09-01T10:00:00Z,26.8015,-97.4706,0.0,1.0,140.0,3.0,'11111222,11111222,11111222' 
TCOON,ioos:station:TCOON:003:1,2004-09-01T11:00:00Z,26.8015,-97.4706,0.0,1.0,280.0,5.0,'11111222,11111222,11111222' 
TCOON,ioos:station:TCOON:003:1,2004-09-01T12:00:00Z,26.8015,-97.4706,0.0,1.0,0.0,2.0,'11111222,11111222,11111222' 
TCOON,ioos:station:TCOON:003:1,2004-09-01T13:00:00Z,26.8015,-97.4706,0.0,0.0,0.0,4.0,'11111222,11111222,11111222' 
TCOON,ioos:station:TCOON:003:1,2004-09-01T14:00:00Z,26.8015,-97.4706,0.0,4.0,120.0,4.0,'11111222,11111222,11111222' 
TCOON,ioos:station:TCOON:003:1,2004-09-01T15:00:00Z,26.8015,-97.4706,0.0,2.0,50.0,7.0,'11111222,11111222,11111222' 
TCOON,ioos:station:TCOON:003:1,2004-09-01T16:00:00Z,26.8015,-97.4706,0.0,5.0,90.0,8.0,'11111222,11111222,11111222' 
TCOON,ioos:station:TCOON:003:1,2004-09-01T17:00:00Z,26.8015,-97.4706,0.0,5.0,80.0,7.0,'11111222,11111222,11111222' 
TCOON,ioos:station:TCOON:003:1,2004-09-01T18:00:00Z,26.8015,-97.4706,0.0,4.0,90.0,6.0,'11111222,11111222,11111222' 
TCOON,ioos:station:TCOON:003:1,2004-09-01T19:00:00Z,26.8015,-97.4706,0.0,5.0,60.0,7.0,'11111222,11111222,11111222' 
TCOON,ioos:station:TCOON:003:1,2004-09-01T20:00:00Z,26.8015,-97.4706,0.0,5.0,70.0,6.0,'11111222,11111222,11111222' 
TCOON,ioos:station:TCOON:003:1,2004-09-01T21:00:00Z,26.8015,-97.4706,0.0,4.0,70.0,6.0,'11111222,11111222,11111222' 
TCOON,ioos:station:TCOON:003:1,2004-09-01T23:00:00Z,26.8015,-97.4706,0.0,4.0,90.0,6.0,'11111222,11111222,11111222' 
TCOON,ioos:station:TCOON:003:1,2004-09-02T00:00:00Z,26.8015,-97.4706,0.0,3.0,100.0,4.0,'11111222,11111222,11111222' 
TCOON,ioos:station:TCOON:003:1,2004-09-02T01:00:00Z,26.8015,-97.4706,0.0,1.0,80.0,4.0,'11111222,11111222,11111222' 
TCOON,ioos:station:TCOON:003:1,2004-09-02T02:00:00Z,26.8015,-97.4706,0.0,4.0,0.0,8.0,'11111222,11111222,11111222' 
TCOON,ioos:station:TCOON:003:1,2004-09-02T03:00:00Z,26.8015,-97.4706,0.0,6.0,0.0,7.0,'11111222,11111222,11111222' 
TCOON,ioos:station:TCOON:003:1,2004-09-02T04:00:00Z,26.8015,-97.4706,0.0,4.0,50.0,6.0,'11111222,11111222,11111222' 
TCOON,ioos:station:TCOON:003:1,2004-09-02T05:00:00Z,26.8015,-97.4706,0.0,4.0,60.0,5.0,'11111222,11111222,11111222' 
TCOON,ioos:station:TCOON:003:1,2004-09-02T06:00:00Z,26.8015,-97.4706,0.0,4.0,70.0,4.0,'11111222,11111222,11111222' 
TCOON,ioos:station:TCOON:003:1,2004-09-02T07:00:00Z,26.8015,-97.4706,0.0,2.0,50.0,3.0,'11111222,11111222,11111222' 
TCOON,ioos:station:TCOON:003:1,2004-09-02T09:00:00Z,26.8015,-97.4706,0.0,2.0,80.0,4.0,'11111222,11111222,11111222' 
TCOON,ioos:station:TCOON:003:1,2004-09-02T10:00:00Z,26.8015,-97.4706,0.0,4.0,320.0,5.0,'11111222,11111222,11111222' 
TCOON,ioos:station:TCOON:003:1,2004-09-02T11:00:00Z,26.8015,-97.4706,0.0,4.0,340.0,7.0,'11111222,11111222,11111222' 
TCOON,ioos:station:TCOON:003:1,2004-09-02T12:00:00Z,26.8015,-97.4706,0.0,6.0,0.0,7.0,'11111222,11111222,11111222' 
TCOON,ioos:station:TCOON:003:1,2004-09-02T13:00:00Z,26.8015,-97.4706,0.0,5.0,20.0,6.0,'11111222,11111222,11111222' 
TCOON,ioos:station:TCOON:003:1,2004-09-02T14:00:00Z,26.8015,-97.4706,0.0,3.0,30.0,7.0,'11111222,11111222,11111222' 
TCOON,ioos:station:TCOON:003:1,2004-09-02T15:00:00Z,26.8015,-97.4706,0.0,6.0,30.0,6.0,'11111222,11111222,11111222' 
TCOON,ioos:station:TCOON:003:1,2004-09-02T16:00:00Z,26.8015,-97.4706,0.0,4.0,30.0,6.0,'11111222,11111222,11111222' 
TCOON,ioos:station:TCOON:003:1,2004-09-02T18:00:00Z,26.8015,-97.4706,0.0,4.0,50.0,9.0,'11111222,11111222,11111222' 
TCOON,ioos:station:TCOON:003:1,2004-09-02T19:00:00Z,26.8015,-97.4706,0.0,8.0,150.0,9.0,'11111222,11111222,11111222' 
TCOON,ioos:station:TCOON:003:1,2004-09-02T20:00:00Z,26.8015,-97.4706,0.0,0.0,0.0,1.0,'11111222,11111222,11111222' 
TCOON,ioos:station:TCOON:003:1,2004-09-02T21:00:00Z,26.8015,-97.4706,0.0,0.0,0.0,0.0,'11111222,11111222,11111222' 
TCOON,ioos:station:TCOON:003:1,2004-09-02T22:00:00Z,26.8015,-97.4706,0.0,0.0,0.0,4.0,'11111222,11111222,11111222' 
TCOON,ioos:station:TCOON:003:1,2004-09-02T23:00:00Z,26.8015,-97.4706,0.0,3.0,20.0,6.0,'11111222,11111222,11111222' 
TCOON,ioos:station:TCOON:003:1,2004-09-03T00:00:00Z,26.8015,-97.4706,0.0,6.0,10.0,6.0,'11111222,11111222,11111222' 
TCOON,ioos:station:TCOON:003:1,2004-09-03T01:00:00Z,26.8015,-97.4706,0.0,4.0,10.0,6.0,'11111222,11111222,11111222' 
TCOON,ioos:station:TCOON:003:1,2004-09-03T02:00:00Z,26.8015,-97.4706,0.0,4.0,20.0,6.0,'11111222,11111222,11111222' 
TCOON,ioos:station:TCOON:003:1,2004-09-03T03:00:00Z,26.8015,-97.4706,0.0,3.0,50.0,4.0,'11111222,11111222,11111222' 
TCOON,ioos:station:TCOON:003:1,2004-09-03T04:00:00Z,26.8015,-97.4706,0.0,3.0,60.0,3.0,'11111222,11111222,11111222' 
TCOON,ioos:station:TCOON:003:1,2004-09-03T05:00:00Z,26.8015,-97.4706,0.0,2.0,70.0,2.0,'11111222,11111222,11111222' 
TCOON,ioos:station:TCOON:003:1,2004-09-03T06:00:00Z,26.8015,-97.4706,0.0,0.0,0.0,3.0,'11111222,11111222,11111222' 
TCOON,ioos:station:TCOON:003:1,2004-09-03T07:00:00Z,26.8015,-97.4706,0.0,1.0,120.0,4.0,'11111222,11111222,11111222' 
TCOON,ioos:station:TCOON:003:1,2004-09-03T08:00:00Z,26.8015,-97.4706,0.0,2.0,280.0,3.0,'11111222,11111222,11111222' 
TCOON,ioos:station:TCOON:003:1,2004-09-03T09:00:00Z,26.8015,-97.4706,0.0,3.0,280.0,4.0,'11111222,11111222,11111222' 
TCOON,ioos:station:TCOON:003:1,2004-09-03T10:00:00Z,26.8015,-97.4706,0.0,2.0,270.0,2.0,'11111222,11111222,11111222' 
TCOON,ioos:station:TCOON:003:1,2004-09-03T11:00:00Z,26.8015,-97.4706,0.0,1.0,270.0,99.0,'11111222,11111222,11144222' 
TCOON,ioos:station:TCOON:003:1,2004-09-03T12:00:00Z,26.8015,-97.4706,0.0,1.0,230.0,3.0,'11111222,11111222,11111222' 
TCOON,ioos:station:TCOON:003:1,2004-09-03T13:00:00Z,26.8015,-97.4706,0.0,2.0,220.0,99.0,'11111222,11111222,11144222' 
TCOON,ioos:station:TCOON:003:1,2004-09-03T14:00:00Z,26.8015,-97.4706,0.0,0.0,0.0,2.0,'11111222,11111222,11111222' 
TCOON,ioos:station:TCOON:003:1,2004-09-03T15:00:00Z,26.8015,-97.4706,0.0,0.0,0.0,0.0,'11111222,11111222,11111222' 
TCOON,ioos:station:TCOON:003:1,2004-09-03T16:00:00Z,26.8015,-97.4706,0.0,1.0,10.0,3.0,'11111222,11111222,11111222' 
TCOON,ioos:station:TCOON:003:1,2004-09-03T17:00:00Z,26.8015,-97.4706,0.0,3.0,40.0,5.0,'11111222,11111222,11111222' 
TCOON,ioos:station:TCOON:003:1,2004-09-03T18:00:00Z,26.8015,-97.4706,0.0,3.0,50.0,4.0,'11111222,11111222,11111222' 
TCOON,ioos:station:TCOON:003:1,2004-09-03T19:00:00Z,26.8015,-97.4706,0.0,3.0,50.0,6.0,'11111222,11111222,11111222' 
TCOON,ioos:station:TCOON:003:1,2004-09-03T20:00:00Z,26.8015,-97.4706,0.0,3.0,60.0,6.0,'11111222,11111222,11111222' 
TCOON,ioos:station:TCOON:003:1,2004-09-03T21:00:00Z,26.8015,-97.4706,0.0,4.0,70.0,7.0,'11111222,11111222,11111222' 
TCOON,ioos:station:TCOON:003:1,2004-09-03T22:00:00Z,26.8015,-97.4706,0.0,5.0,70.0,7.0,'11111222,11111222,11111222' 
TCOON,ioos:station:TCOON:003:1,2004-09-03T23:00:00Z,26.8015,-97.4706,0.0,5.0,70.0,7.0,'11111222,11111222,11111222' 
TCOON,ioos:station:TCOON:003:1,2004-09-04T00:00:00Z,26.8015,-97.4706,0.0,5.0,80.0,6.0,'11111222,11111222,11111222' 
TCOON,ioos:station:TCOON:003:1,2004-09-04T01:00:00Z,26.8015,-97.4706,0.0,4.0,80.0,5.0,'11111222,11111222,11111222' 
TCOON,ioos:station:TCOON:003:1,2004-09-04T02:00:00Z,26.8015,-97.4706,0.0,4.0,90.0,5.0,'11111222,11111222,11111222' 
TCOON,ioos:station:TCOON:003:1,2004-09-04T03:00:00Z,26.8015,-97.4706,0.0,4.0,100.0,5.0,'11111222,11111222,11111222' 
TCOON,ioos:station:TCOON:003:1,2004-09-04T04:00:00Z,26.8015,-97.4706,0.0,4.0,100.0,5.0,'11111222,11111222,11111222' 
TCOON,ioos:station:TCOON:003:1,2004-09-04T05:00:00Z,26.8015,-97.4706,0.0,4.0,110.0,5.0,'11111222,11111222,11111222' 
TCOON,ioos:station:TCOON:003:1,2004-09-04T06:00:00Z,26.8015,-97.4706,0.0,4.0,120.0,5.0,'11111222,11111222,11111222' 
TCOON,ioos:station:TCOON:003:1,2004-09-04T07:00:00Z,26.8015,-97.4706,0.0,4.0,120.0,8.0,'11111222,11111222,11111222' 
TCOON,ioos:station:TCOON:003:1,2004-09-04T09:00:00Z,26.8015,-97.4706,0.0,4.0,120.0,4.0,'11111222,11111222,11111222' 
TCOON,ioos:station:TCOON:003:1,2004-09-04T10:00:00Z,26.8015,-97.4706,0.0,2.0,110.0,3.0,'11111222,11111222,11111222' 
TCOON,ioos:station:TCOON:003:1,2004-09-04T11:00:00Z,26.8015,-97.4706,0.0,4.0,120.0,6.0,'11111222,11111222,11111222' 
TCOON,ioos:station:TCOON:003:1,2004-09-04T12:00:00Z,26.8015,-97.4706,0.0,2.0,130.0,3.0,'11111222,11111222,11111222' 
TCOON,ioos:station:TCOON:003:1,2004-09-04T13:00:00Z,26.8015,-97.4706,0.0,1.0,120.0,2.0,'11111222,11111222,11111222' 
TCOON,ioos:station:TCOON:003:1,2004-09-04T14:00:00Z,26.8015,-97.4706,0.0,2.0,110.0,3.0,'11111222,11111222,11111222' 
TCOON,ioos:station:TCOON:003:1,2004-09-04T15:00:00Z,26.8015,-97.4706,0.0,3.0,130.0,5.0,'11111222,11111222,11111222' 
TCOON,ioos:station:TCOON:003:1,2004-09-04T16:00:00Z,26.8015,-97.4706,0.0,5.0,130.0,7.0,'11111222,11111222,11111222' 
TCOON,ioos:station:TCOON:003:1,2004-09-04T18:00:00Z,26.8015,-97.4706,0.0,7.0,110.0,8.0,'11111222,11111222,11111222' 
TCOON,ioos:station:TCOON:003:1,2004-09-04T19:00:00Z,26.8015,-97.4706,0.0,5.0,110.0,7.0,'11111222,11111222,11111222' 
TCOON,ioos:station:TCOON:003:1,2004-09-04T20:00:00Z,26.8015,-97.4706,0.0,5.0,100.0,7.0,'11111222,11111222,11111222' 
TCOON,ioos:station:TCOON:003:1,2004-09-04T21:00:00Z,26.8015,-97.4706,0.0,6.0,100.0,8.0,'11111222,11111222,11111222' 
TCOON,ioos:station:TCOON:003:1,2004-09-04T22:00:00Z,26.8015,-97.4706,0.0,6.0,90.0,8.0,'11111222,11111222,11111222' 
TCOON,ioos:station:TCOON:003:1,2004-09-04T23:00:00Z,26.8015,-97.4706,0.0,6.0,100.0,8.0,'11111222,11111222,11111222' 
TCOON,ioos:station:TCOON:003:1,2004-09-05T00:00:00Z,26.8015,-97.4706,0.0,7.0,100.0,8.0,'11111222,11111222,11111222' 
TCOON,ioos:station:TCOON:003:1,2004-09-05T01:00:00Z,26.8015,-97.4706,0.0,7.0,100.0,8.0,'11111222,11111222,11111222' 
TCOON,ioos:station:TCOON:003:1,2004-09-05T02:00:00Z,26.8015,-97.4706,0.0,6.0,100.0,7.0,'11111222,11111222,11111222' 
TCOON,ioos:station:TCOON:003:1,2004-09-05T03:00:00Z,26.8015,-97.4706,0.0,6.0,110.0,7.0,'11111222,11111222,11111222' 
TCOON,ioos:station:TCOON:003:1,2004-09-05T04:00:00Z,26.8015,-97.4706,0.0,5.0,120.0,7.0,'11111222,11111222,11111222' 
TCOON,ioos:station:TCOON:003:1,2004-09-05T05:00:00Z,26.8015,-97.4706,0.0,4.0,120.0,6.0,'11111222,11111222,11111222' 
TCOON,ioos:station:TCOON:003:1,2004-09-05T06:00:00Z,26.8015,-97.4706,0.0,5.0,130.0,6.0,'11111222,11111222,11111222' 
TCOON,ioos:station:TCOON:003:1,2004-09-05T07:00:00Z,26.8015,-97.4706,0.0,4.0,130.0,5.0,'11111222,11111222,11111222' 
TCOON,ioos:station:TCOON:003:1,2004-09-05T08:00:00Z,26.8015,-97.4706,0.0,4.0,140.0,5.0,'11111222,11111222,11111222' 
TCOON,ioos:station:TCOON:003:1,2004-09-05T09:00:00Z,26.8015,-97.4706,0.0,3.0,130.0,4.0,'11111222,11111222,11111222' 
TCOON,ioos:station:TCOON:003:1,2004-09-05T10:00:00Z,26.8015,-97.4706,0.0,2.0,130.0,99.0,'11111222,11111222,11144222' 
TCOON,ioos:station:TCOON:003:1,2004-09-05T11:00:00Z,26.8015,-97.4706,0.0,0.0,0.0,0.0,'11111222,11111222,11111222' 
TCOON,ioos:station:TCOON:003:1,2004-09-05T12:00:00Z,26.8015,-97.4706,0.0,0.0,0.0,1.0,'11111222,11111222,11111222' 
TCOON,ioos:station:TCOON:003:1,2004-09-05T13:00:00Z,26.8015,-97.4706,0.0,1.0,190.0,2.0,'11111222,11111222,11111222' 
TCOON,ioos:station:TCOON:003:1,2004-09-05T14:00:00Z,26.8015,-97.4706,0.0,0.0,0.0,1.0,'11111222,11111222,11111222' 
TCOON,ioos:station:TCOON:003:1,2004-09-05T15:00:00Z,26.8015,-97.4706,0.0,0.0,0.0,0.0,'11111222,11111222,11111222' 
TCOON,ioos:station:TCOON:003:1,2004-09-05T18:00:00Z,26.8015,-97.4706,0.0,4.0,110.0,6.0,'11111222,11111222,11111222' 
TCOON,ioos:station:TCOON:003:1,2004-09-05T19:00:00Z,26.8015,-97.4706,0.0,4.0,110.0,7.0,'11111222,11111222,11111222' 
TCOON,ioos:station:TCOON:003:1,2004-09-05T20:00:00Z,26.8015,-97.4706,0.0,5.0,110.0,8.0,'11111222,11111222,11111222' 
TCOON,ioos:station:TCOON:003:1,2004-09-05T21:00:00Z,26.8015,-97.4706,0.0,5.0,110.0,7.0,'11111222,11111222,11111222' 
TCOON,ioos:station:TCOON:003:1,2004-09-05T22:00:00Z,26.8015,-97.4706,0.0,6.0,110.0,8.0,'11111222,11111222,11111222' 
TCOON,ioos:station:TCOON:003:1,2004-09-05T23:00:00Z,26.8015,-97.4706,0.0,6.0,110.0,8.0,'11111222,11111222,11111222' 
TCOON,ioos:station:TCOON:003:1,2004-09-06T00:00:00Z,26.8015,-97.4706,0.0,7.0,110.0,8.0,'11111222,11111222,11111222' 
TCOON,ioos:station:TCOON:003:1,2004-09-06T01:00:00Z,26.8015,-97.4706,0.0,6.0,110.0,7.0,'11111222,11111222,11111222' 
TCOON,ioos:station:TCOON:003:1,2004-09-06T02:00:00Z,26.8015,-97.4706,0.0,5.0,130.0,6.0,'11111222,11111222,11111222' 
TCOON,ioos:station:TCOON:003:1,2004-09-06T03:00:00Z,26.8015,-97.4706,0.0,5.0,130.0,6.0,'11111222,11111222,11111222' 
TCOON,ioos:station:TCOON:003:1,2004-09-06T04:00:00Z,26.8015,-97.4706,0.0,4.0,130.0,5.0,'11111222,11111222,11111222' 
TCOON,ioos:station:TCOON:003:1,2004-09-06T05:00:00Z,26.8015,-97.4706,0.0,4.0,140.0,5.0,'11111222,11111222,11111222' 
TCOON,ioos:station:TCOON:003:1,2004-09-06T06:00:00Z,26.8015,-97.4706,0.0,4.0,140.0,5.0,'11111222,11111222,11111222' 
TCOON,ioos:station:TCOON:003:1,2004-09-06T07:00:00Z,26.8015,-97.4706,0.0,2.0,150.0,3.0,'11111222,11111222,11111222' 
TCOON,ioos:station:TCOON:003:1,2004-09-06T08:00:00Z,26.8015,-97.4706,0.0,1.0,150.0,3.0,'11111222,11111222,11111222' 
TCOON,ioos:station:TCOON:003:1,2004-09-06T09:00:00Z,26.8015,-97.4706,0.0,2.0,150.0,3.0,'11111222,11111222,11111222' 
TCOON,ioos:station:TCOON:003:1,2004-09-06T10:00:00Z,26.8015,-97.4706,0.0,2.0,160.0,99.0,'11111222,11111222,11144222' 
TCOON,ioos:station:TCOON:003:1,2004-09-06T11:00:00Z,26.8015,-97.4706,0.0,0.0,0.0,0.0,'11111222,11111222,11111222' 
TCOON,ioos:station:TCOON:003:1,2004-09-06T12:00:00Z,26.8015,-97.4706,0.0,0.0,0.0,0.0,'11111222,11111222,11111222' 
TCOON,ioos:station:TCOON:003:1,2004-09-06T13:00:00Z,26.8015,-97.4706,0.0,0.0,0.0,0.0,'11111222,11111222,11111222' 
TCOON,ioos:station:TCOON:003:1,2004-09-06T14:00:00Z,26.8015,-97.4706,0.0,0.0,0.0,0.0,'11111222,11111222,11111222' 
TCOON,ioos:station:TCOON:003:1,2004-09-06T15:00:00Z,26.8015,-97.4706,0.0,0.0,0.0,0.0,'11111222,11111222,11111222' 
TCOON,ioos:station:TCOON:003:1,2004-09-06T16:00:00Z,26.8015,-97.4706,0.0,2.0,110.0,3.0,'11111222,11111222,11111222' 
TCOON,ioos:station:TCOON:003:1,2004-09-06T17:00:00Z,26.8015,-97.4706,0.0,2.0,120.0,3.0,'11111222,11111222,11111222' 
TCOON,ioos:station:TCOON:003:1,2004-09-06T18:00:00Z,26.8015,-97.4706,0.0,1.0,120.0,3.0,'11111222,11111222,11111222' 
TCOON,ioos:station:TCOON:003:1,2004-09-06T19:00:00Z,26.8015,-97.4706,0.0,3.0,120.0,7.0,'11111222,11111222,11111222' 
TCOON,ioos:station:TCOON:003:1,2004-09-06T20:00:00Z,26.8015,-97.4706,0.0,5.0,90.0,7.0,'11111222,11111222,11111222' 
TCOON,ioos:station:TCOON:003:1,2004-09-06T21:00:00Z,26.8015,-97.4706,0.0,5.0,80.0,8.0,'11111222,11111222,11111222' 
TCOON,ioos:station:TCOON:003:1,2004-09-06T22:00:00Z,26.8015,-97.4706,0.0,5.0,90.0,7.0,'11111222,11111222,11111222' 
TCOON,ioos:station:TCOON:003:1,2004-09-06T23:00:00Z,26.8015,-97.4706,0.0,4.0,80.0,6.0,'11111222,11111222,11111222' 
TCOON,ioos:station:TCOON:003:1,2004-09-07T00:00:00Z,26.8015,-97.4706,0.0,4.0,90.0,6.0,'11111222,11111222,11111222' 
TCOON,ioos:station:TCOON:003:1,2004-09-07T01:00:00Z,26.8015,-97.4706,0.0,4.0,110.0,5.0,'11111222,11111222,11111222' 
TCOON,ioos:station:TCOON:003:1,2004-09-07T02:00:00Z,26.8015,-97.4706,0.0,4.0,120.0,6.0,'11111222,11111222,11111222' 
TCOON,ioos:station:TCOON:003:1,2004-09-07T03:00:00Z,26.8015,-97.4706,0.0,3.0,120.0,4.0,'11111222,11111222,11111222' 
TCOON,ioos:station:TCOON:003:1,2004-09-07T04:00:00Z,26.8015,-97.4706,0.0,2.0,110.0,3.0,'11111222,11111222,11111222' 
TCOON,ioos:station:TCOON:003:1,2004-09-07T05:00:00Z,26.8015,-97.4706,0.0,0.0,0.0,2.0,'11111222,11111222,11111222' 
TCOON,ioos:station:TCOON:003:1,2004-09-07T06:00:00Z,26.8015,-97.4706,0.0,2.0,110.0,3.0,'11111222,11111222,11111222' 
TCOON,ioos:station:TCOON:003:1,2004-09-07T07:00:00Z,26.8015,-97.4706,0.0,2.0,320.0,4.0,'11111222,11111222,11111222' 
TCOON,ioos:station:TCOON:003:1,2004-09-07T08:00:00Z,26.8015,-97.4706,0.0,1.0,320.0,3.0,'11111222,11111222,11111222' 
TCOON,ioos:station:TCOON:003:1,2004-09-07T09:00:00Z,26.8015,-97.4706,0.0,2.0,320.0,4.0,'11111222,11111222,11111222' 
TCOON,ioos:station:TCOON:003:1,2004-09-07T10:00:00Z,26.8015,-97.4706,0.0,3.0,310.0,5.0,'11111222,11111222,11111222' 
TCOON,ioos:station:TCOON:003:1,2004-09-07T11:00:00Z,26.8015,-97.4706,0.0,4.0,320.0,6.0,'11111222,11111222,11111222' 
TCOON,ioos:station:TCOON:003:1,2004-09-07T12:00:00Z,26.8015,-97.4706,0.0,5.0,330.0,6.0,'11111222,11111222,11111222' 
TCOON,ioos:station:TCOON:003:1,2004-09-07T13:00:00Z,26.8015,-97.4706,0.0,5.0,340.0,7.0,'11111222,11111222,11111222' 
TCOON,ioos:station:TCOON:003:1,2004-09-07T14:00:00Z,26.8015,-97.4706,0.0,6.0,340.0,8.0,'11111222,11111222,11111222' 
TCOON,ioos:station:TCOON:003:1,2004-09-07T15:00:00Z,26.8015,-97.4706,0.0,7.0,340.0,8.0,'11111222,11111222,11111222' 
TCOON,ioos:station:TCOON:003:1,2004-09-07T16:00:00Z,26.8015,-97.4706,0.0,5.0,350.0,8.0,'11111222,11111222,11111222' 
TCOON,ioos:station:TCOON:003:1,2004-09-07T17:00:00Z,26.8015,-97.4706,0.0,4.0,360.0,7.0,'11111222,11144222,11111222' 
TCOON,ioos:station:TCOON:003:1,2004-09-07T18:00:00Z,26.8015,-97.4706,0.0,5.0,0.0,7.0,'11111222,11111222,11111222' 
TCOON,ioos:station:TCOON:003:1,2004-09-07T19:00:00Z,26.8015,-97.4706,0.0,4.0,330.0,8.0,'11111222,11111222,11111222' 
TCOON,ioos:station:TCOON:003:1,2004-09-07T20:00:00Z,26.8015,-97.4706,0.0,5.0,330.0,8.0,'11111222,11111222,11111222' 
TCOON,ioos:station:TCOON:003:1,2004-09-07T21:00:00Z,26.8015,-97.4706,0.0,5.0,320.0,8.0,'11111222,11111222,11111222' 
TCOON,ioos:station:TCOON:003:1,2004-09-07T22:00:00Z,26.8015,-97.4706,0.0,6.0,320.0,9.0,'11111222,11111222,11111222' 
TCOON,ioos:station:TCOON:003:1,2004-09-07T23:00:00Z,26.8015,-97.4706,0.0,8.0,330.0,9.0,'11111222,11111222,11111222' 
TCOON,ioos:station:TCOON:003:1,2004-09-08T00:00:00Z,26.8015,-97.4706,0.0,7.0,0.0,8.0,'11111222,11111222,11111222' 
TCOON,ioos:station:TCOON:003:1,2004-09-08T01:00:00Z,26.8015,-97.4706,0.0,3.0,360.0,5.0,'11111222,11144222,11111222' 
TCOON,ioos:station:TCOON:003:1,2004-09-08T02:00:00Z,26.8015,-97.4706,0.0,4.0,0.0,5.0,'11111222,11111222,11111222' 
TCOON,ioos:station:TCOON:003:1,2004-09-08T03:00:00Z,26.8015,-97.4706,0.0,2.0,0.0,3.0,'11111222,11111222,11111222' 
TCOON,ioos:station:TCOON:003:1,2004-09-08T04:00:00Z,26.8015,-97.4706,0.0,0.0,0.0,3.0,'11111222,11111222,11111222' 
TCOON,ioos:station:TCOON:003:1,2004-09-08T05:00:00Z,26.8015,-97.4706,0.0,3.0,330.0,5.0,'11111222,11111222,11111222' 
TCOON,ioos:station:TCOON:003:1,2004-09-08T06:00:00Z,26.8015,-97.4706,0.0,4.0,340.0,5.0,'11111222,11111222,11111222' 
TCOON,ioos:station:TCOON:003:1,2004-09-08T07:00:00Z,26.8015,-97.4706,0.0,4.0,330.0,6.0,'11111222,11111222,11111222' 
TCOON,ioos:station:TCOON:003:1,2004-09-08T09:00:00Z,26.8015,-97.4706,0.0,4.0,330.0,6.0,'11111222,11111222,11111222' 
TCOON,ioos:station:TCOON:003:1,2004-09-08T10:00:00Z,26.8015,-97.4706,0.0,4.0,320.0,6.0,'11111222,11111222,11111222' 
TCOON,ioos:station:TCOON:003:1,2004-09-08T12:00:00Z,26.8015,-97.4706,0.0,6.0,310.0,7.0,'11111222,11111222,11111222' 
TCOON,ioos:station:TCOON:003:1,2004-09-08T13:00:00Z,26.8015,-97.4706,0.0,6.0,310.0,7.0,'11111222,11111222,11111222' 
TCOON,ioos:station:TCOON:003:1,2004-09-08T14:00:00Z,26.8015,-97.4706,0.0,6.0,320.0,7.0,'11111222,11111222,11111222' 
TCOON,ioos:station:TCOON:003:1,2004-09-08T15:00:00Z,26.8015,-97.4706,0.0,5.0,340.0,8.0,'11111222,11111222,11111222' 
TCOON,ioos:station:TCOON:003:1,2004-09-08T16:00:00Z,26.8015,-97.4706,0.0,6.0,340.0,8.0,'11111222,11111222,11111222' 
TCOON,ioos:station:TCOON:003:1,2004-09-08T17:00:00Z,26.8015,-97.4706,0.0,6.0,340.0,9.0,'11111222,11111222,11111222' 
TCOON,ioos:station:TCOON:003:1,2004-09-08T18:00:00Z,26.8015,-97.4706,0.0,7.0,350.0,9.0,'11111222,11111222,11111222' 
TCOON,ioos:station:TCOON:003:1,2004-09-08T19:00:00Z,26.8015,-97.4706,0.0,7.0,350.0,9.0,'11111222,11111222,11111222' 
TCOON,ioos:station:TCOON:003:1,2004-09-08T20:00:00Z,26.8015,-97.4706,0.0,6.0,350.0,9.0,'11111222,11111222,11111222' 
TCOON,ioos:station:TCOON:003:1,2004-09-08T21:00:00Z,26.8015,-97.4706,0.0,8.0,360.0,9.0,'11111222,11144222,11111222' 
TCOON,ioos:station:TCOON:003:1,2004-09-08T22:00:00Z,26.8015,-97.4706,0.0,6.0,350.0,9.0,'11111222,11111222,11111222' 
TCOON,ioos:station:TCOON:003:1,2004-09-08T23:00:00Z,26.8015,-97.4706,0.0,7.0,20.0,9.0,'11111222,11111222,11111222' 
TCOON,ioos:station:TCOON:003:1,2004-09-09T00:00:00Z,26.8015,-97.4706,0.0,8.0,20.0,9.0,'11111222,11111222,11111222' 
TCOON,ioos:station:TCOON:003:1,2004-09-09T01:00:00Z,26.8015,-97.4706,0.0,8.0,30.0,9.0,'11111222,11111222,11111222' 
TCOON,ioos:station:TCOON:003:1,2004-09-09T02:00:00Z,26.8015,-97.4706,0.0,7.0,20.0,9.0,'11111222,11111222,11111222' 
TCOON,ioos:station:TCOON:003:1,2004-09-09T03:00:00Z,26.8015,-97.4706,0.0,5.0,20.0,7.0,'11111222,11111222,11111222' 
TCOON,ioos:station:TCOON:003:1,2004-09-09T04:00:00Z,26.8015,-97.4706,0.0,5.0,20.0,7.0,'11111222,11111222,11111222' 
TCOON,ioos:station:TCOON:003:1,2004-09-09T05:00:00Z,26.8015,-97.4706,0.0,5.0,20.0,7.0,'11111222,11111222,11111222' 
TCOON,ioos:station:TCOON:003:1,2004-09-09T06:00:00Z,26.8015,-97.4706,0.0,4.0,20.0,6.0,'11111222,11111222,11111222' 
TCOON,ioos:station:TCOON:003:1,2004-09-09T07:00:00Z,26.8015,-97.4706,0.0,4.0,10.0,5.0,'11111222,11111222,11111222' 
TCOON,ioos:station:TCOON:003:1,2004-09-09T09:00:00Z,26.8015,-97.4706,0.0,4.0,350.0,6.0,'11111222,11111222,11111222' 
TCOON,ioos:station:TCOON:003:1,2004-09-09T13:00:00Z,26.8015,-97.4706,0.0,6.0,320.0,8.0,'11111222,11111222,11111222' 
TCOON,ioos:station:TCOON:003:1,2004-09-09T14:00:00Z,26.8015,-97.4706,0.0,7.0,340.0,9.0,'11111222,11111222,11111222' 
TCOON,ioos:station:TCOON:003:1,2004-09-09T15:00:00Z,26.8015,-97.4706,0.0,6.0,360.0,99.0,'11111222,11144222,11144222' 
TCOON,ioos:station:TCOON:003:1,2004-09-09T17:00:00Z,26.8015,-97.4706,0.0,4.0,30.0,8.0,'11111222,11111222,11111222' 
TCOON,ioos:station:TCOON:003:1,2004-09-09T18:00:00Z,26.8015,-97.4706,0.0,8.0,50.0,9.0,'11111222,11111222,11111222' 
TCOON,ioos:station:TCOON:003:1,2004-09-09T19:00:00Z,26.8015,-97.4706,0.0,8.0,40.0,11.0,'11111222,11111222,11111222' 
TCOON,ioos:station:TCOON:003:1,2004-09-09T20:00:00Z,26.8015,-97.4706,0.0,9.0,40.0,9.0,'11111222,11111222,11111222' 
TCOON,ioos:station:TCOON:003:1,2004-09-09T21:00:00Z,26.8015,-97.4706,0.0,8.0,30.0,9.0,'11111222,11111222,11111222' 
TCOON,ioos:station:TCOON:003:1,2004-09-09T22:00:00Z,26.8015,-97.4706,0.0,8.0,40.0,9.0,'11111222,11111222,11111222' 
TCOON,ioos:station:TCOON:003:1,2004-09-09T23:00:00Z,26.8015,-97.4706,0.0,8.0,40.0,9.0,'11111222,11111222,11111222' 
TCOON,ioos:station:TCOON:003:1,2004-09-10T00:00:00Z,26.8015,-97.4706,0.0,6.0,20.0,8.0,'11111222,11111222,11111222' 
TCOON,ioos:station:TCOON:003:1,2004-09-10T01:00:00Z,26.8015,-97.4706,0.0,4.0,20.0,5.0,'11111222,11111222,11111222' 
TCOON,ioos:station:TCOON:003:1,2004-09-10T02:00:00Z,26.8015,-97.4706,0.0,5.0,20.0,8.0,'11111222,11111222,11111222' 